Regional Weather Roundup
Issued by NWS

Home | Current Version | Previous Version | Text Only | Print | Product List | Glossary On
Versions: 1 2 3 4 5 6 7 8 9 10 11 12 13 14 15 16 17 18 19 20 21 22 23 24 25 26 27 28 29 30 31 32 33 34 35 36 37 38 39 40 41 42 43 44 45 46 47 48 49 50
000
ASUS45 KCYS 310110
RWRWY

WYOMING REGIONAL WEATHER ROUNDUP
NATIONAL WEATHER SERVICE CHEYENNE WY
700 PM MDT WED JUL 30 2014

NOTE:  "FAIR" INDICATES FEW OR NO CLOUDS BELOW 12,000 FEET
WITH NO SIGNIFICANT WEATHER AND/OR OBSTRUCTIONS TO VISIBILITY.

WYZ001-310200-
YELLOWSTONE NATIONAL PARK

CITY           SKY/WX    TMP DP  RH WIND       PRES   REMARKS
LK YELLOWSTONE   N/A     68  33  27 CALM      30.44R
W YELLOWSTONE  NOT AVBL

$$
WYZ002>013-054>058-071-098>099-310200-
NORTHERN WYOMING

CITY           SKY/WX    TMP DP  RH WIND       PRES   REMARKS
JACKSON        SUNNY     70  50  49 SW13      30.33S
CODY           NOT AVBL
GREYBULL       CLOUDY    85  39  19 E3        30.15F
WORLAND        CLOUDY    81  48  31 CALM      30.18F
SHERIDAN       PTSUNNY   81  38  21 CALM      30.19S
BUFFALO        MOSUNNY   77  31  18 NE6       30.27S
GILLETTE       MOSUNNY   81  38  21 NE9       30.21F
HULETT         FAIR      75  45  33 MISG      30.23
NEWCASTLE      FAIR      79  34  19 N9        30.20

$$
WYZ014>020-022>026-101>103-310200-
CENTRAL WYOMING

CITY           SKY/WX    TMP DP  RH WIND       PRES   REMARKS
BIG PINEY      CLOUDY    61  43  51 SW3       30.40F
PINEDALE       CLOUDY    61  45  55 MISG      30.41F
DUBOIS         FAIR      68  30  24 SE14      30.39S
LANDER         CLOUDY    72  41  32 NW5       30.29S
RIVERTON       CLOUDY    76  43  30 NW8       30.29F
CASPER         CLOUDY    75  40  28 NE8       30.27S
DOUGLAS        PTSUNNY   75  45  34 SW6       30.26S

$$
WYZ021-027>030-104>119-310200-
SOUTHERN WYOMING

CITY           SKY/WX    TMP DP  RH WIND       PRES   REMARKS
EVANSTON       CLOUDY    59  52  77 NE14G24   30.38F
KEMMERER       CLOUDY    55  48  76 NE7       30.41F
FORT BRIDGER   CLOUDY    60  55  84 E10       30.42S
ROCK SPRINGS   CLOUDY    61  48  62 E14       30.37F
DIXON          RAIN      62  55  78 NE9       30.33R
RAWLINS        CLOUDY    62  49  62 E9        30.37S
SARATOGA       CLOUDY    61  48  63 CALM      30.38R
LARAMIE        CLOUDY    57  50  77 S8        30.41R
CHEYENNE       CLOUDY    60  55  83 S8        30.36S
TORRINGTON     CLOUDY    73  56  54 SW10      30.22S
PINE BLUFFS    FAIR      61  55  82 SW12      30.31F

$$


USA.gov is the U.S. government's official web portal to all federal, state and local government web resources and services.